﻿#観測日時,平均風速,平均風向,最大風速,最大風速発生風向,最大瞬間風速,最大瞬間風速発生風向
#(年月日),(m/s)   ,(16方位),(m/s)   ,(16方位)        ,(m/s)       ,(16方位)            
2020/3/24 0:01,2.5,15,2.5,15,4.5,15
2020/3/24 0:02,2.6,15,2.6,15,8.5,16
2020/3/24 0:03,2.6,15,2.6,15,9.4,16
2020/3/24 0:04,2.9,16,2.9,15,10,15
2020/3/24 0:05,3.2,16,3.2,15,6.4,15
2020/3/24 0:06,3.5,16,3.5,16,7.2,15
2020/3/24 0:07,3.7,15,3.7,16,7.7,16
2020/3/24 0:08,3.8,15,3.8,15,5.5,14
2020/3/24 0:09,3.8,15,3.8,15,7.1,16
2020/3/24 0:10,3.9,15,3.9,15,5.4,15
2020/3/24 0:11,4,15,4,15,7.8,15
2020/3/24 0:12,4.1,15,4.1,15,7.9,16
2020/3/24 0:13,4.1,16,4.1,15,7,16
2020/3/24 0:14,3.8,16,4.1,15,3.3,1
2020/3/24 0:15,3.7,16,3.8,15,2.4,2
2020/3/24 0:16,3.4,16,3.6,15,3.1,1
2020/3/24 0:17,3.1,16,3.4,15,2.9,2
2020/3/24 0:18,3,16,3.2,15,3.2,3
2020/3/24 0:19,2.7,16,3,15,3.2,14
2020/3/24 0:20,2.4,1,2.6,15,3.1,3
2020/3/24 0:21,2.1,1,2.4,15,3,1
2020/3/24 0:22,1.8,1,2.1,16,2.7,2
2020/3/24 0:23,1.5,1,1.8,16,1.3,5
2020/3/24 0:24,1.4,1,1.5,16,1.9,16
2020/3/24 0:25,1.3,1,1.4,16,1.5,1
2020/3/24 0:26,1.1,2,1.2,16,0.5,2
2020/3/24 0:27,0.9,1,1.1,16,0.4,1
2020/3/24 0:28,0.7,1,0.9,16,0.1,13
2020/3/24 0:29,0.8,1,0.8,16,2.5,14
2020/3/24 0:30,0.8,16,0.8,1,3.1,1
2020/3/24 0:31,0.9,16,0.9,1,3.7,15
2020/3/24 0:32,0.9,16,0.9,1,2.4,15
2020/3/24 0:33,1,16,1,1,2.6,1
2020/3/24 0:34,1.1,16,1.1,1,3.7,16
2020/3/24 0:35,1.3,16,1.3,16,5.1,16
2020/3/24 0:36,1.3,16,1.4,16,0.8,12
2020/3/24 0:37,1.4,16,1.4,16,2.5,16
2020/3/24 0:38,1.6,16,1.6,16,6,3
2020/3/24 0:39,1.8,16,1.8,16,4.5,3
2020/3/24 0:40,2,1,2,1,6,1
2020/3/24 0:41,2,1,2,1,4.1,16
2020/3/24 0:42,2.1,1,2.1,1,3.2,15
2020/3/24 0:43,2,1,2.1,1,2.7,16
2020/3/24 0:44,2,1,2.1,1,3,16
2020/3/24 0:45,1.9,1,1.9,1,3,2
2020/3/24 0:46,2,1,2,1,2.4,16
2020/3/24 0:47,2,1,2.1,1,2.4,1
2020/3/24 0:48,1.9,1,2,1,1.5,14
2020/3/24 0:49,1.9,1,1.9,1,5,1
2020/3/24 0:50,1.8,1,1.9,1,3.7,14
2020/3/24 0:51,1.7,16,1.8,1,2.5,15
2020/3/24 0:52,1.5,16,1.6,1,1.3,12
2020/3/24 0:53,1.4,16,1.5,1,1.6,12
2020/3/24 0:54,1.4,16,1.4,1,2,12
2020/3/24 0:55,1.3,15,1.4,1,2.4,15
2020/3/24 0:56,1.4,15,1.4,1,5.1,15
2020/3/24 0:57,1.4,15,1.4,1,2.6,11
2020/3/24 0:58,1.4,14,1.4,1,4.7,12
2020/3/24 0:59,1.3,14,1.4,1,3.7,12
2020/3/24 1:00,1.2,14,1.3,1,1.4,14
2020/3/24 1:01,1.2,14,1.2,16,0.8,1
2020/3/24 1:02,1.2,15,1.2,16,1.8,15
2020/3/24 1:03,1.3,15,1.3,16,2.4,16
2020/3/24 1:04,1.4,15,1.4,16,3.6,16
2020/3/24 1:05,1.4,16,1.5,15,2,16
2020/3/24 1:06,1.3,15,1.4,15,1.8,12
2020/3/24 1:07,1.3,15,1.3,15,2.1,12
2020/3/24 1:08,1.3,15,1.4,15,3.1,15
2020/3/24 1:09,1.3,16,1.3,15,4.2,15
2020/3/24 1:10,1.4,16,1.4,15,4.1,15
2020/3/24 1:11,1.5,15,1.5,15,2.5,15
2020/3/24 1:12,1.6,15,1.6,15,3.2,1
2020/3/24 1:13,1.6,15,1.6,15,2.9,4
2020/3/24 1:14,1.4,16,1.6,15,2,4
2020/3/24 1:15,1.4,16,1.4,15,1.9,3
2020/3/24 1:16,1.4,16,1.4,15,3.1,2
2020/3/24 1:17,1.5,1,1.5,15,3.6,2
2020/3/24 1:18,1.6,1,1.6,15,5,2
2020/3/24 1:19,1.8,1,1.8,1,5.6,16
2020/3/24 1:20,2.1,1,2.1,1,10.2,16
2020/3/24 1:21,2.4,2,2.4,2,7,1
2020/3/24 1:22,2.6,2,2.6,2,7.7,3
2020/3/24 1:23,2.9,2,2.9,2,6.5,5
2020/3/24 1:24,3.3,2,3.3,2,7.8,3
2020/3/24 1:25,3.5,2,3.5,2,5.4,2
2020/3/24 1:26,3.5,2,3.5,2,2.6,16
2020/3/24 1:27,3.5,2,3.5,2,3.6,15
2020/3/24 1:28,3.4,1,3.5,2,3.1,12
2020/3/24 1:29,3.1,1,3.4,2,2.4,15
2020/3/24 1:30,2.8,1,3.1,2,5,15
2020/3/24 1:31,2.6,1,2.8,2,2.1,1
2020/3/24 1:32,2.4,16,2.6,2,2.5,16
2020/3/24 1:33,2,16,2.3,2,3.5,3
2020/3/24 1:34,1.8,16,2,2,5.4,4
2020/3/24 1:35,1.9,16,1.9,2,4.5,3
2020/3/24 1:36,2.2,1,2.2,2,6.4,5
2020/3/24 1:37,2.3,1,2.3,2,6.3,2
2020/3/24 1:38,2.1,2,2.2,1,1.3,2
2020/3/24 1:39,2,2,2.1,1,1,15
2020/3/24 1:40,1.9,2,2,1,4.5,2
2020/3/24 1:41,1.9,2,2,1,2.5,2
2020/3/24 1:42,1.9,2,1.9,16,2.6,16
2020/3/24 1:43,2,1,2,1,3.5,15
2020/3/24 1:44,1.9,1,2,1,3.1,14
2020/3/24 1:45,1.7,16,1.9,1,2.6,16
2020/3/24 1:46,1.4,16,1.7,1,1.6,12
2020/3/24 1:47,1.3,16,1.4,2,3.1,14
2020/3/24 1:48,1.4,15,1.4,2,3.1,16
2020/3/24 1:49,1.7,15,1.7,2,6.3,16
2020/3/24 1:50,1.9,15,1.9,2,6.8,16
2020/3/24 1:51,2,15,2,1,3.2,14
2020/3/24 1:52,2,15,2.1,15,2.7,14
2020/3/24 1:53,2.1,15,2.1,15,6.9,16
2020/3/24 1:54,2.3,15,2.3,15,5.7,16
2020/3/24 1:55,2.6,15,2.6,15,9,14
2020/3/24 1:56,3.2,15,3.2,15,11.3,14
2020/3/24 1:57,3.6,15,3.6,15,8.6,14
2020/3/24 1:58,3.8,15,3.8,15,6.2,16
2020/3/24 1:59,3.7,15,3.8,15,4.7,15
2020/3/24 2:00,3.5,15,3.7,15,3.6,14
2020/3/24 2:01,3.6,15,3.6,15,3.7,15
2020/3/24 2:02,3.8,15,3.8,15,7,16
2020/3/24 2:03,3.8,15,3.9,15,5.2,15
2020/3/24 2:04,3.6,15,3.8,15,4.2,13
2020/3/24 2:05,3.4,15,3.6,15,5.2,15
2020/3/24 2:06,3.1,15,3.5,15,4.8,15
2020/3/24 2:07,2.9,15,3.1,15,4.8,14
2020/3/24 2:08,3.1,15,3.1,15,9.1,15
2020/3/24 2:09,3.3,15,3.3,15,6.5,16
2020/3/24 2:10,3.5,15,3.5,15,7.9,15
2020/3/24 2:11,3.4,15,3.5,15,2.5,13
2020/3/24 2:12,3.3,15,3.4,15,5.1,14
2020/3/24 2:13,3.3,15,3.3,15,5.8,16
2020/3/24 2:14,3.5,15,3.5,15,6.9,1
2020/3/24 2:15,3.6,15,3.6,15,7.6,15
2020/3/24 2:16,3.6,15,3.6,15,4.9,16
2020/3/24 2:17,3.7,15,3.7,15,6.5,16
2020/3/24 2:18,3.5,15,3.7,15,6.8,16
2020/3/24 2:19,3.5,15,3.5,15,6.2,15
2020/3/24 2:20,3.5,15,3.5,15,6,16
2020/3/24 2:21,3.4,15,3.5,15,4.4,13
2020/3/24 2:22,3.4,16,3.4,15,8.7,14
2020/3/24 2:23,3.8,16,3.8,16,9.1,15
2020/3/24 2:24,3.8,16,3.9,16,8.4,16
2020/3/24 2:25,3.6,15,3.8,16,4.3,14
2020/3/24 2:26,3.6,15,3.7,16,5.6,14
2020/3/24 2:27,3.5,15,3.6,16,5.1,1
2020/3/24 2:28,3.4,15,3.6,16,5.7,15
2020/3/24 2:29,3.3,15,3.4,16,3.3,15
2020/3/24 2:30,3.2,15,3.3,16,6.1,15
2020/3/24 2:31,3.6,15,3.6,16,7.8,15
2020/3/24 2:32,3.8,15,3.8,16,6.9,15
2020/3/24 2:33,3.5,15,3.8,16,6.7,15
2020/3/24 2:34,3.2,15,3.4,16,3.7,16
2020/3/24 2:35,3.2,15,3.2,15,3.1,13
2020/3/24 2:36,3.1,15,3.1,15,5.6,15
2020/3/24 2:37,3,15,3,15,4.4,16
2020/3/24 2:38,3.1,15,3.1,15,6,16
2020/3/24 2:39,3.3,15,3.3,15,7.8,16
2020/3/24 2:40,3.3,15,3.3,15,7.7,15
2020/3/24 2:41,2.9,15,3.2,15,2.4,8
2020/3/24 2:42,2.4,14,2.8,15,1.8,13
2020/3/24 2:43,2.3,14,2.4,15,2.1,12
2020/3/24 2:44,2.2,14,2.3,15,2,14
2020/3/24 2:45,2.2,14,2.2,15,2.4,15
2020/3/24 2:46,2.2,14,2.3,15,3,16
2020/3/24 2:47,2.1,14,2.2,15,1.8,14
2020/3/24 2:48,1.8,14,2.1,15,3.8,13
2020/3/24 2:49,1.7,14,1.9,15,3.5,15
2020/3/24 2:50,1.5,14,1.6,15,2,14
2020/3/24 2:51,1.4,14,1.4,15,1.1,7
2020/3/24 2:52,1.5,14,1.5,14,3.9,13
2020/3/24 2:53,1.6,14,1.6,14,4.3,12
2020/3/24 2:54,1.5,15,1.6,14,1.4,15
2020/3/24 2:55,1.6,14,1.6,14,4.5,14
2020/3/24 2:56,1.7,14,1.7,14,5.2,15
2020/3/24 2:57,2,14,2,14,9.4,16
2020/3/24 2:58,2.1,14,2.1,14,5.6,16
2020/3/24 2:59,2.1,14,2.1,14,3,16
2020/3/24 3:00,2.1,14,2.1,14,2.7,12
2020/3/24 3:01,2.3,14,2.3,14,3,11
2020/3/24 3:02,2.2,14,2.3,14,2.6,13
2020/3/24 3:03,2.2,14,2.2,14,2.4,13
2020/3/24 3:04,2.4,13,2.4,13,6.5,13
2020/3/24 3:05,2.3,14,2.4,13,3.6,16
2020/3/24 3:06,2.3,14,2.4,13,3.6,1
2020/3/24 3:07,1.9,14,2.3,13,1.9,2
2020/3/24 3:08,1.7,13,1.9,13,1,9
2020/3/24 3:09,1.7,13,1.7,13,5,13
2020/3/24 3:10,1.9,13,1.9,13,5.5,13
2020/3/24 3:11,2,13,2,13,3.8,12
2020/3/24 3:12,1.9,13,1.9,13,1.1,9
2020/3/24 3:13,1.8,13,1.9,13,1.1,13
2020/3/24 3:14,1.5,14,1.8,13,1.4,2
2020/3/24 3:15,1.5,14,1.5,14,3.2,15
2020/3/24 3:16,1.5,14,1.5,14,5.1,15
2020/3/24 3:17,1.8,14,1.8,13,5,15
2020/3/24 3:18,2,14,2,13,4.9,15
2020/3/24 3:19,2,14,2,13,2.5,16
2020/3/24 3:20,1.7,15,1.9,13,1.5,16
2020/3/24 3:21,1.6,15,1.7,14,2.5,1
2020/3/24 3:22,1.7,15,1.7,14,2.2,14
2020/3/24 3:23,1.6,16,1.7,14,0.9,15
2020/3/24 3:24,1.7,16,1.7,14,1.6,3
2020/3/24 3:25,1.7,16,1.7,14,1.9,3
2020/3/24 3:26,1.7,16,1.7,14,4.4,11
2020/3/24 3:27,1.5,16,1.7,14,2.6,10
2020/3/24 3:28,1.5,16,1.5,14,7.4,13
2020/3/24 3:29,1.6,16,1.6,14,5.5,12
2020/3/24 3:30,1.8,15,1.8,15,3.7,12
2020/3/24 3:31,1.9,14,1.9,15,4.1,10
2020/3/24 3:32,2,14,2,14,2.9,12
2020/3/24 3:33,2.1,13,2.1,13,2.1,12
2020/3/24 3:34,2.2,12,2.2,13,3,11
2020/3/24 3:35,2.2,12,2.2,13,3.7,16
2020/3/24 3:36,2,13,2.2,13,2.1,15
2020/3/24 3:37,2.1,12,2.1,13,3.8,12
2020/3/24 3:38,1.9,13,2.1,13,4.2,13
2020/3/24 3:39,1.7,13,1.9,13,2.5,16
2020/3/24 3:40,1.6,13,1.7,13,3.9,16
2020/3/24 3:41,1.7,13,1.7,13,5.6,16
2020/3/24 3:42,1.9,14,1.9,13,5,14
2020/3/24 3:43,1.9,14,1.9,13,3,15
2020/3/24 3:44,1.8,14,1.8,12,2.6,15
2020/3/24 3:45,1.9,14,1.9,12,3.3,11
2020/3/24 3:46,2.1,14,2.1,12,5.7,15
2020/3/24 3:47,2.2,14,2.2,14,5.5,15
2020/3/24 3:48,2.2,15,2.2,14,3.6,16
2020/3/24 3:49,2.4,15,2.4,15,4.9,16
2020/3/24 3:50,2.4,15,2.5,15,3.9,16
2020/3/24 3:51,2.3,14,2.4,15,3.9,14
2020/3/24 3:52,2.2,14,2.3,15,4.7,16
2020/3/24 3:53,2.2,14,2.2,15,2.9,14
2020/3/24 3:54,2.3,14,2.3,15,4.4,13
2020/3/24 3:55,2.6,14,2.6,14,5.8,12
2020/3/24 3:56,2.5,14,2.6,14,4.1,12
2020/3/24 3:57,2.4,14,2.5,14,3.1,12
2020/3/24 3:58,2.4,14,2.4,14,3.3,15
2020/3/24 3:59,2.4,14,2.4,14,4.2,13
2020/3/24 4:00,2.5,13,2.5,14,5.4,11
2020/3/24 4:01,2.6,13,2.6,14,4.5,12
2020/3/24 4:02,2.7,13,2.7,13,4.3,11
2020/3/24 4:03,2.8,13,2.8,13,4.9,13
2020/3/24 4:04,2.7,13,2.8,13,3.8,15
2020/3/24 4:05,2.4,13,2.7,13,1.3,13
2020/3/24 4:06,2.3,14,2.3,13,3.6,14
2020/3/24 4:07,2.3,13,2.3,13,4.5,11
2020/3/24 4:08,2.6,13,2.6,13,6,12
2020/3/24 4:09,2.7,13,2.7,13,6.2,12
2020/3/24 4:10,3,13,3,13,7.7,13
2020/3/24 4:11,3,13,3,13,5.5,14
2020/3/24 4:12,3,13,3,13,3.2,12
2020/3/24 4:13,2.9,13,3,13,4.3,13
2020/3/24 4:14,3.1,13,3.1,13,6.4,12
2020/3/24 4:15,3.1,13,3.1,13,2,11
2020/3/24 4:16,2.9,13,3.1,13,1.6,11
2020/3/24 4:17,2.8,13,2.9,13,2.5,12
2020/3/24 4:18,2.6,13,2.8,13,2.6,13
2020/3/24 4:19,2.3,13,2.5,13,2.4,11
2020/3/24 4:20,1.8,13,2.2,13,1,12
2020/3/24 4:21,1.5,12,1.7,13,0.5,12
2020/3/24 4:22,1.5,12,1.5,13,4.7,12
2020/3/24 4:23,1.5,12,1.5,13,4.9,12
2020/3/24 4:24,1.4,12,1.5,13,3.2,13
2020/3/24 4:25,1.5,12,1.5,13,2.9,13
2020/3/24 4:26,1.6,12,1.6,13,3.1,13
2020/3/24 4:27,1.8,12,1.8,13,5.1,12
2020/3/24 4:28,2,12,2,13,5.2,14
2020/3/24 4:29,2.3,13,2.3,13,9.5,15
2020/3/24 4:30,2.8,13,2.8,13,9,15
2020/3/24 4:31,3.1,13,3.1,13,7.6,12
2020/3/24 4:32,3.3,13,3.3,13,6.2,13
2020/3/24 4:33,3.4,13,3.4,13,8.1,12
2020/3/24 4:34,3.4,13,3.5,13,5.1,13
2020/3/24 4:35,3.5,13,3.5,13,5.5,10
2020/3/24 4:36,3.7,13,3.7,13,6.3,13
2020/3/24 4:37,3.6,13,3.7,13,4.2,13
2020/3/24 4:38,3.5,13,3.6,13,3.9,11
2020/3/24 4:39,3.1,13,3.5,13,1.9,8
2020/3/24 4:40,2.7,13,3,13,3.3,15
2020/3/24 4:41,2.6,13,2.7,13,4.1,14
2020/3/24 4:42,2.5,13,2.6,13,3.8,14
2020/3/24 4:43,2.4,13,2.5,13,7,12
2020/3/24 4:44,2.5,13,2.5,13,5.1,13
2020/3/24 4:45,2.4,13,2.5,13,3.1,10
2020/3/24 4:46,2.2,13,2.4,13,2.6,11
2020/3/24 4:47,2.3,13,2.3,13,5,16
2020/3/24 4:48,2.4,13,2.4,13,4.5,15
2020/3/24 4:49,2.6,13,2.6,13,4.7,15
2020/3/24 4:50,2.7,13,2.7,13,3.6,16
2020/3/24 4:51,2.6,13,2.7,13,3.5,14
2020/3/24 4:52,2.6,14,2.6,13,5.2,14
2020/3/24 4:53,2.5,14,2.6,13,3.5,16
2020/3/24 4:54,2.3,14,2.5,13,2,3
2020/3/24 4:55,2.3,15,2.3,13,6.4,15
2020/3/24 4:56,2.5,15,2.5,13,5.7,14
2020/3/24 4:57,2.4,15,2.5,13,3.1,12
2020/3/24 4:58,2.4,15,2.4,13,4.2,14
2020/3/24 4:59,2.3,14,2.4,13,4.4,13
2020/3/24 5:00,2.4,14,2.4,13,3.5,12
2020/3/24 5:01,2.5,14,2.5,13,3.6,12
2020/3/24 5:02,2.4,13,2.5,14,3.6,13
2020/3/24 5:03,2.4,13,2.4,14,3.8,13
2020/3/24 5:04,2.5,13,2.5,15,2.5,10
2020/3/24 5:05,2.5,13,2.6,13,3,12
2020/3/24 5:06,2.4,13,2.4,13,6.8,15
2020/3/24 5:07,2.6,13,2.6,13,6.7,13
2020/3/24 5:08,2.5,13,2.6,13,3,14
2020/3/24 5:09,2.4,13,2.5,13,2,15
2020/3/24 5:10,2.2,13,2.4,13,1.8,11
2020/3/24 5:11,2.1,13,2.2,13,3,13
2020/3/24 5:12,2,13,2.1,13,2,12
2020/3/24 5:13,1.9,13,2,13,2.1,14
2020/3/24 5:14,2,13,2,13,3.1,10
2020/3/24 5:15,2.1,13,2.1,13,3.3,9
2020/3/24 5:16,2.1,12,2.1,13,5.1,13
2020/3/24 5:17,1.8,12,2,13,2.4,14
2020/3/24 5:18,1.8,12,1.8,13,2.5,15
2020/3/24 5:19,1.9,13,1.9,13,3,14
2020/3/24 5:20,2,13,2,13,4.1,12
2020/3/24 5:21,2.1,13,2.1,13,3.7,13
2020/3/24 5:22,2.2,13,2.2,13,4.5,12
2020/3/24 5:23,2.4,13,2.4,13,3.8,2
2020/3/24 5:24,2.4,13,2.4,13,3.7,2
2020/3/24 5:25,2.4,14,2.4,13,4.4,16
2020/3/24 5:26,2.2,14,2.4,13,5,15
2020/3/24 5:27,2.1,15,2.2,13,0.6,12
2020/3/24 5:28,2.1,15,2.1,13,1.9,16
2020/3/24 5:29,2,15,2.1,13,3,2
2020/3/24 5:30,2,16,2,13,2.2,2
2020/3/24 5:31,1.9,16,2,13,2.1,16
2020/3/24 5:32,1.7,16,1.9,13,2.2,1
2020/3/24 5:33,1.5,16,1.7,13,2.6,1
2020/3/24 5:34,1.4,16,1.5,13,2.2,16
2020/3/24 5:35,1.2,16,1.4,14,2.2,16
2020/3/24 5:36,1.1,16,1.2,14,1.4,15
2020/3/24 5:37,1.2,16,1.2,15,0.5,6
2020/3/24 5:38,1.1,1,1.2,15,0.9,2
2020/3/24 5:39,1,1,1.1,15,1,2
2020/3/24 5:40,0.8,1,1,16,0.5,1
2020/3/24 5:41,0.7,1,0.8,16,0.5,9
2020/3/24 5:42,0.7,1,0.7,16,0.6,16
2020/3/24 5:43,0.5,1,0.7,16,0.4,2
2020/3/24 5:44,0.4,2,0.5,16,0.6,5
2020/3/24 5:45,0.5,3,0.5,16,2.2,5
2020/3/24 5:46,0.6,4,0.6,16,2.2,5
2020/3/24 5:47,0.6,4,0.6,1,1.1,5
2020/3/24 5:48,0.6,4,0.6,1,1.5,11
2020/3/24 5:49,0.6,5,0.6,1,1.5,10
2020/3/24 5:50,0.7,7,0.7,1,1.8,8
2020/3/24 5:51,0.8,7,0.8,7,1.6,8
2020/3/24 5:52,0.9,7,0.9,7,2,8
2020/3/24 5:53,1,8,1,7,1.8,9
2020/3/24 5:54,1.1,8,1.1,8,2,10
2020/3/24 5:55,1.1,9,1.2,8,2.7,9
2020/3/24 5:56,1.1,9,1.1,8,2.6,9
2020/3/24 5:57,1.1,10,1.1,8,2.5,10
2020/3/24 5:58,1.1,10,1.1,8,1.3,14
2020/3/24 5:59,1.1,10,1.1,8,0.6,11
2020/3/24 6:00,1,11,1.1,8,1.6,14
2020/3/24 6:01,1,11,1,8,1.6,13
2020/3/24 6:02,1,12,1,8,2.2,11
2020/3/24 6:03,1,12,1,8,2.6,10
2020/3/24 6:04,0.9,12,1,8,1,2
2020/3/24 6:05,0.9,12,0.9,9,1.6,3
2020/3/24 6:06,0.8,13,0.9,9,0.5,9
2020/3/24 6:07,0.8,13,0.8,10,1.9,6
2020/3/24 6:08,0.8,13,0.8,10,2,2
2020/3/24 6:09,1,16,1,10,2.4,2
2020/3/24 6:10,1,4,1,11,1.4,6
2020/3/24 6:11,1,5,1,11,1.8,13
2020/3/24 6:12,0.9,4,1,12,1.5,15
2020/3/24 6:13,0.8,4,0.9,12,1.4,15
2020/3/24 6:14,0.8,3,0.8,15,1,16
2020/3/24 6:15,0.8,2,0.8,15,2.4,16
2020/3/24 6:16,0.9,2,0.9,15,1,3
2020/3/24 6:17,0.9,2,0.9,15,1.4,4
2020/3/24 6:18,0.8,2,0.9,15,0.8,15
2020/3/24 6:19,0.7,3,0.8,1,2,7
2020/3/24 6:20,0.7,2,0.7,4,1.1,15
2020/3/24 6:21,0.6,3,0.7,5,0.8,2
2020/3/24 6:22,0.7,3,0.7,4,1.6,1
2020/3/24 6:23,0.6,3,0.6,2,0.4,3
2020/3/24 6:24,0.6,2,0.6,2,1,1
2020/3/24 6:25,0.6,2,0.6,2,1.6,1
2020/3/24 6:26,0.6,2,0.6,2,1.8,1
2020/3/24 6:27,0.6,3,0.6,2,1.3,5
2020/3/24 6:28,0.6,3,0.6,2,1,8
2020/3/24 6:29,0.5,2,0.6,3,0.5,9
2020/3/24 6:30,0.5,2,0.5,2,0.9,10
2020/3/24 6:31,0.6,15,0.6,2,2,13
2020/3/24 6:32,0.6,13,0.6,3,1.4,12
2020/3/24 6:33,0.7,13,0.7,13,1.1,13
2020/3/24 6:34,0.7,13,0.7,13,1.1,12
2020/3/24 6:35,0.8,12,0.8,12,2.1,12
2020/3/24 6:36,0.8,12,0.8,12,1.3,11
2020/3/24 6:37,0.8,12,0.8,12,1.5,10
2020/3/24 6:38,0.9,12,0.9,12,2.7,15
2020/3/24 6:39,1.1,12,1.1,12,2.2,15
2020/3/24 6:40,1.1,12,1.1,12,1.5,13
2020/3/24 6:41,1.1,12,1.1,12,1.9,5
2020/3/24 6:42,1.1,13,1.1,12,2,1
2020/3/24 6:43,1.2,13,1.2,13,2.2,16
2020/3/24 6:44,1.3,14,1.3,14,2.7,15
2020/3/24 6:45,1.2,14,1.3,14,1.4,14
2020/3/24 6:46,1.1,13,1.2,14,0.8,12
2020/3/24 6:47,1.1,16,1.1,14,1.4,4
2020/3/24 6:48,1,2,1.1,14,1.6,3
2020/3/24 6:49,1,3,1,14,1.6,2
2020/3/24 6:50,1,3,1,14,1.4,4
2020/3/24 6:51,1.1,3,1.1,14,1.9,4
2020/3/24 6:52,1.1,3,1.2,14,1.8,4
2020/3/24 6:53,1.1,4,1.1,14,1.5,6
2020/3/24 6:54,1.1,5,1.1,14,2.5,9
2020/3/24 6:55,1.3,5,1.3,5,3.5,8
2020/3/24 6:56,1.4,5,1.4,5,2.9,8
2020/3/24 6:57,1.5,6,1.5,5,2.9,10
2020/3/24 6:58,1.5,6,1.5,5,2.7,9
2020/3/24 6:59,1.5,7,1.5,5,2.7,8
2020/3/24 7:00,1.5,7,1.5,5,1.5,7
2020/3/24 7:01,1.5,8,1.5,5,1.8,6
2020/3/24 7:02,1.5,8,1.5,5,2.1,6
2020/3/24 7:03,1.5,8,1.5,5,2.5,9
2020/3/24 7:04,1.6,8,1.6,8,3.5,8
2020/3/24 7:05,1.4,8,1.6,8,1.9,8
2020/3/24 7:06,1.4,7,1.4,8,1.5,6
2020/3/24 7:07,1.2,7,1.3,8,1,6
2020/3/24 7:08,1.1,7,1.2,8,1.4,8
2020/3/24 7:09,1.1,7,1.1,8,2.6,8
2020/3/24 7:10,1.1,7,1.2,8,2.2,8
2020/3/24 7:11,1.2,8,1.2,8,2.4,10
2020/3/24 7:12,1.2,8,1.2,8,3.6,9
2020/3/24 7:13,1.2,8,1.2,8,2.7,9
2020/3/24 7:14,1.1,8,1.2,8,2.7,10
2020/3/24 7:15,1.1,8,1.1,8,1.1,13
2020/3/24 7:16,1,9,1.1,7,1.8,12
2020/3/24 7:17,1.1,9,1.1,7,1.5,8
2020/3/24 7:18,1.2,9,1.2,7,1.6,5
2020/3/24 7:19,1.1,9,1.2,7,1.9,6
2020/3/24 7:20,1.1,8,1.1,7,1.5,5
2020/3/24 7:21,1,8,1.1,8,2,8
2020/3/24 7:22,1,8,1.1,8,2.9,8
2020/3/24 7:23,0.9,7,1,8,0.5,7
2020/3/24 7:24,1,7,1,9,1.5,6
2020/3/24 7:25,1,6,1,9,1.5,5
2020/3/24 7:26,1,6,1,9,1.9,5
2020/3/24 7:27,0.9,6,1,9,1.5,3
2020/3/24 7:28,0.9,6,0.9,9,1.1,6
2020/3/24 7:29,0.8,6,0.9,9,1.1,8
2020/3/24 7:30,0.7,6,0.7,8,0.4,11
2020/3/24 7:31,0.6,6,0.7,8,0.8,11
2020/3/24 7:32,0.6,7,0.6,8,1.3,10
2020/3/24 7:33,0.6,7,0.6,7,1.5,9
2020/3/24 7:34,0.6,8,0.6,7,1.3,10
2020/3/24 7:35,0.5,9,0.6,6,1.3,10
2020/3/24 7:36,0.5,9,0.5,6,0.9,7
2020/3/24 7:37,0.5,9,0.5,6,1.6,7
2020/3/24 7:38,0.6,9,0.6,6,1.8,6
2020/3/24 7:39,0.8,8,0.8,9,3.7,4
2020/3/24 7:40,1,8,1,8,3.6,6
2020/3/24 7:41,1.1,8,1.1,8,1.9,9
2020/3/24 7:42,1.2,7,1.2,7,2.5,8
2020/3/24 7:43,1.2,7,1.2,7,2.7,8
2020/3/24 7:44,1.3,7,1.3,7,2.5,8
2020/3/24 7:45,1.4,7,1.4,7,2,7
2020/3/24 7:46,1.4,7,1.4,7,1.6,9
2020/3/24 7:47,1.5,7,1.5,7,2.7,8
2020/3/24 7:48,1.5,7,1.5,7,3.1,9
2020/3/24 7:49,1.5,8,1.5,7,3.5,9
2020/3/24 7:50,1.4,8,1.5,7,4.2,9
2020/3/24 7:51,1.6,8,1.6,8,3.1,8
2020/3/24 7:52,1.7,8,1.7,8,3.1,8
2020/3/24 7:53,1.7,8,1.7,8,2.6,9
2020/3/24 7:54,1.6,8,1.7,8,3,8
2020/3/24 7:55,1.7,9,1.7,8,3.3,9
2020/3/24 7:56,1.8,9,1.8,9,3,8
2020/3/24 7:57,1.7,9,1.8,9,1,13
2020/3/24 7:58,1.6,9,1.7,9,0.9,9
2020/3/24 7:59,1.5,9,1.6,9,1.3,9
2020/3/24 8:00,1.3,9,1.4,9,1.4,8
2020/3/24 8:01,1.1,9,1.3,9,2.1,10
2020/3/24 8:02,1.1,10,1.1,9,3.2,10
2020/3/24 8:03,1,10,1.1,9,2.5,10
2020/3/24 8:04,0.9,10,1,9,0.5,5
2020/3/24 8:05,0.8,10,0.9,9,2,10
2020/3/24 8:06,0.9,10,0.9,9,3,10
2020/3/24 8:07,1,9,1,9,3.3,9
2020/3/24 8:08,1,9,1,9,3.2,9
2020/3/24 8:09,1.2,10,1.2,9,3.3,9
2020/3/24 8:10,1.3,9,1.3,9,3.5,9
2020/3/24 8:11,1.5,9,1.5,9,3.3,8
2020/3/24 8:12,1.5,9,1.5,9,4.1,9
2020/3/24 8:13,1.7,10,1.7,10,4.9,11
2020/3/24 8:14,1.8,10,1.8,10,3.3,9
2020/3/24 8:15,1.9,10,1.9,10,3.7,10
2020/3/24 8:16,1.8,10,1.9,10,3.5,10
2020/3/24 8:17,1.8,10,1.8,10,3.1,9
2020/3/24 8:18,1.9,9,1.9,10,2.9,8
2020/3/24 8:19,1.8,9,1.9,10,3.7,8
2020/3/24 8:20,1.8,9,1.8,10,2.7,8
2020/3/24 8:21,1.9,9,1.9,10,4.1,7
2020/3/24 8:22,1.9,9,1.9,10,3,7
2020/3/24 8:23,1.9,8,1.9,10,3.5,7
2020/3/24 8:24,1.9,8,2,8,3.6,8
2020/3/24 8:25,2,8,2,8,4.1,8
2020/3/24 8:26,2,8,2,8,2.9,10
2020/3/24 8:27,2.1,8,2.1,8,3.2,9
2020/3/24 8:28,2.1,8,2.1,8,3,9
2020/3/24 8:29,2.2,8,2.2,8,4.2,10
2020/3/24 8:30,2.3,9,2.3,8,3.8,9
2020/3/24 8:31,2.1,9,2.3,8,3.2,11
2020/3/24 8:32,2,9,2.1,8,2.6,9
2020/3/24 8:33,1.9,9,2,8,2.1,9
2020/3/24 8:34,1.9,9,1.9,8,4.4,10
2020/3/24 8:35,1.9,9,1.9,8,3.3,10
2020/3/24 8:36,1.9,9,1.9,8,3.2,8
2020/3/24 8:37,1.9,9,1.9,8,3.3,8
2020/3/24 8:38,2,9,2,8,3.2,9
2020/3/24 8:39,1.8,9,2,8,3,7
2020/3/24 8:40,1.8,9,1.8,9,3.1,7
2020/3/24 8:41,1.8,8,1.8,9,3.6,9
2020/3/24 8:42,1.9,9,1.9,9,3.5,8
2020/3/24 8:43,2,9,2,9,3.7,9
2020/3/24 8:44,2,9,2,9,4.9,9
2020/3/24 8:45,2.1,9,2.1,9,7.9,10
2020/3/24 8:46,2.3,9,2.3,9,6.1,9
2020/3/24 8:47,2.4,9,2.5,9,8.2,11
2020/3/24 8:48,2.7,9,2.7,9,8.5,15
2020/3/24 8:49,2.9,10,2.9,10,5.6,15
2020/3/24 8:50,3.3,11,3.3,10,10.3,16
2020/3/24 8:51,3.6,12,3.6,12,7.7,15
2020/3/24 8:52,3.8,13,3.8,13,6.1,16
2020/3/24 8:53,3.9,14,3.9,14,4.7,15
2020/3/24 8:54,3.9,14,3.9,14,4.7,15
2020/3/24 8:55,3.8,15,3.9,14,5.5,14
2020/3/24 8:56,3.7,15,3.8,14,4.8,14
2020/3/24 8:57,3.7,15,3.8,14,6.1,15
2020/3/24 8:58,3.7,15,3.8,14,6.4,15
2020/3/24 8:59,4,15,4,15,10.6,15
2020/3/24 9:00,3.8,15,4,15,8.5,15
2020/3/24 9:01,3.6,15,3.8,15,6.9,15
2020/3/24 9:02,3.7,15,3.7,15,7.9,15
2020/3/24 9:03,3.6,15,3.7,15,5,15
2020/3/24 9:04,3.7,15,3.7,15,5.8,2
2020/3/24 9:05,3.7,15,3.8,15,7.8,3
2020/3/24 9:06,4,16,4,15,10.6,3
2020/3/24 9:07,4.1,16,4.2,16,6.9,5
2020/3/24 9:08,4,1,4.1,16,5.7,4
2020/3/24 9:09,3.9,2,4.1,16,8.2,3
2020/3/24 9:10,3.7,2,3.9,16,5.7,4
2020/3/24 9:11,3.7,2,3.7,16,5.2,3
2020/3/24 9:12,3.5,2,3.7,16,3,3
2020/3/24 9:13,3.3,3,3.4,16,1.3,2
2020/3/24 9:14,3.1,3,3.3,16,3.1,16
2020/3/24 9:15,3.1,2,3.1,16,4.9,1
2020/3/24 9:16,2.8,2,3.1,16,3.7,15
2020/3/24 9:17,2.7,1,2.8,16,4.5,15
2020/3/24 9:18,2.5,1,2.6,1,3,14
2020/3/24 9:19,2.2,16,2.5,2,3.2,1
2020/3/24 9:20,2.4,16,2.4,2,10,14
2020/3/24 9:21,2.9,16,2.9,2,11.1,15
2020/3/24 9:22,3.2,15,3.2,2,8.1,15
2020/3/24 9:23,3.7,15,3.7,15,8.3,15
2020/3/24 9:24,3.8,15,3.8,15,6.1,15
2020/3/24 9:25,3.9,15,3.9,15,6.8,16
2020/3/24 9:26,4.1,15,4.1,15,6.2,16
2020/3/24 9:27,4.4,15,4.4,15,9,16
2020/3/24 9:28,4.7,15,4.7,15,6.3,16
2020/3/24 9:29,4.8,15,4.8,15,6.8,15
2020/3/24 9:30,4.5,16,4.8,15,4.3,16
2020/3/24 9:31,3.9,15,4.5,15,3.8,13
2020/3/24 9:32,3.7,16,3.8,15,5.5,2
2020/3/24 9:33,3.3,16,3.7,15,5.6,16
2020/3/24 9:34,3.1,16,3.3,15,2.1,1
2020/3/24 9:35,2.8,16,3.1,15,1.5,16
2020/3/24 9:36,2.4,16,2.7,15,2.1,16
2020/3/24 9:37,2,16,2.4,15,2.7,2
2020/3/24 9:38,1.7,16,2,15,3.2,2
2020/3/24 9:39,1.8,16,1.8,15,5,1
2020/3/24 9:40,1.8,16,1.8,16,3,16
2020/3/24 9:41,1.8,1,1.8,16,3.8,16
2020/3/24 9:42,1.8,16,1.8,16,4.3,15
2020/3/24 9:43,1.8,16,1.8,16,4.2,15
2020/3/24 9:44,2.1,16,2.1,16,7.7,16
2020/3/24 9:45,2.8,16,2.8,16,11.3,16
2020/3/24 9:46,3,16,3,16,6.2,16
2020/3/24 9:47,3.5,16,3.5,16,10.1,15
2020/3/24 9:48,3.8,16,3.8,16,10.3,14
2020/3/24 9:49,4.3,16,4.3,16,11.5,16
2020/3/24 9:50,4.8,15,4.8,15,10.2,16
2020/3/24 9:51,5,15,5,15,7.6,15
2020/3/24 9:52,5,16,5,15,6.4,15
2020/3/24 9:53,5.3,16,5.3,16,9.8,16
2020/3/24 9:54,5.6,16,5.6,16,12.4,15
2020/3/24 9:55,5.6,16,5.7,16,10.9,16
2020/3/24 9:56,5.7,16,5.7,16,6.3,16
2020/3/24 9:57,5.4,16,5.7,16,5.1,1
2020/3/24 9:58,5.2,16,5.4,16,6.9,16
2020/3/24 9:59,5,15,5.2,16,8.2,14
2020/3/24 10:00,4.7,15,5,16,8.2,15
2020/3/24 10:01,4.7,15,4.8,16,5.8,15
2020/3/24 10:02,4.8,15,4.8,16,7.9,16
2020/3/24 10:03,4.7,15,4.7,16,12.2,16
2020/3/24 10:04,4.3,15,4.7,16,5.6,16
2020/3/24 10:05,4,15,4.3,16,7,16
2020/3/24 10:06,4.2,15,4.2,16,12.5,16
2020/3/24 10:07,4.5,15,4.5,16,12.1,16
2020/3/24 10:08,4.6,15,4.7,16,9.9,16
2020/3/24 10:09,4.6,15,4.7,15,7.8,1
2020/3/24 10:10,4.8,16,4.8,15,10.3,1
2020/3/24 10:11,4.8,16,4.8,15,6.9,15
2020/3/24 10:12,4.9,16,4.9,16,8.3,16
2020/3/24 10:13,4.9,16,5,16,11.8,14
2020/3/24 10:14,5,16,5,16,8.7,15
2020/3/24 10:15,5.2,16,5.2,16,7.4,14
2020/3/24 10:16,5,16,5.3,16,9.5,16
2020/3/24 10:17,5.1,15,5.1,16,9.8,15
2020/3/24 10:18,5.1,15,5.1,16,8.7,14
2020/3/24 10:19,5.2,15,5.2,16,8.9,1
2020/3/24 10:20,5.1,15,5.2,16,9.3,16
2020/3/24 10:21,5.2,15,5.2,16,7.2,15
2020/3/24 10:22,5,15,5.2,16,4.9,15
2020/3/24 10:23,4.7,16,4.9,16,7,3
2020/3/24 10:24,4.4,16,4.7,16,4.5,2
2020/3/24 10:25,4.1,16,4.4,16,3.5,4
2020/3/24 10:26,3.8,1,4,15,3.2,3
2020/3/24 10:27,3.3,1,3.8,15,4.3,2
2020/3/24 10:28,3,1,3.2,15,3.3,2
2020/3/24 10:29,2.6,2,2.9,15,2.5,6
2020/3/24 10:30,2.2,2,2.5,15,5.5,16
2020/3/24 10:31,1.9,2,2.2,15,2.7,13
2020/3/24 10:32,2.1,2,2.1,15,7.4,2
2020/3/24 10:33,2.1,2,2.2,16,6.5,2
2020/3/24 10:34,2.1,1,2.1,16,5.1,1
2020/3/24 10:35,2.1,1,2.1,16,2.6,10
2020/3/24 10:36,2.1,16,2.1,1,5.2,15
2020/3/24 10:37,2.5,16,2.5,1,9.2,15
2020/3/24 10:38,2.8,15,2.8,1,8.5,15
2020/3/24 10:39,3.2,15,3.2,15,9.1,15
2020/3/24 10:40,3.6,15,3.6,15,9.8,16
2020/3/24 10:41,3.7,15,3.7,15,8.2,15
2020/3/24 10:42,3.5,15,3.7,15,4.3,2
2020/3/24 10:43,3.7,15,3.7,15,7.6,16
2020/3/24 10:44,3.8,16,3.8,15,6.5,15
2020/3/24 10:45,4.1,16,4.1,16,7.5,15
2020/3/24 10:46,4.3,16,4.3,16,7.5,16
2020/3/24 10:47,4.2,16,4.3,16,8.2,16
2020/3/24 10:48,4.4,16,4.4,16,9.9,14
2020/3/24 10:49,4.4,16,4.4,16,9.9,16
2020/3/24 10:50,4.2,16,4.4,16,7.2,16
2020/3/24 10:51,4.4,15,4.4,16,9.5,16
2020/3/24 10:52,4.8,15,4.8,15,9.3,16
2020/3/24 10:53,4.9,15,4.9,15,8.9,15
2020/3/24 10:54,5.1,15,5.1,15,10,14
2020/3/24 10:55,5.2,15,5.3,15,8.5,15
2020/3/24 10:56,5.2,15,5.3,15,8.4,1
2020/3/24 10:57,5,15,5.2,15,3.3,14
2020/3/24 10:58,4.5,15,5,15,3.6,16
2020/3/24 10:59,4.3,16,4.5,15,3.8,3
2020/3/24 11:00,4.1,16,4.3,15,5.6,3
2020/3/24 11:01,3.9,16,4.2,15,4.4,2
2020/3/24 11:02,3.4,1,3.8,15,2.6,3
2020/3/24 11:03,3,1,3.4,15,4.2,2
2020/3/24 11:04,2.5,2,2.9,15,4.4,2
2020/3/24 11:05,2.1,2,2.5,15,5.4,16
2020/3/24 11:06,2,2,2.1,15,6.7,1
2020/3/24 11:07,2,2,2,15,4.7,3
2020/3/24 11:08,2.1,2,2.1,16,5,3
2020/3/24 11:09,2.2,2,2.2,16,6.2,3
2020/3/24 11:10,2.1,2,2.2,16,3.1,1
2020/3/24 11:11,2,1,2,16,5.8,13
2020/3/24 11:12,2.2,16,2.2,1,6.4,16
2020/3/24 11:13,2.5,16,2.5,1,4.9,15